DW7220 Weather Reports


Display with metric or nautical units.
time (UTC)temp
F
wind
direction
speed
MPH
gust
MPH
rain 1hr
in
rain 24hr
in
rain mn
in
humidity
%
barometer
mb
20260510001614 82 102 6.0 16.0 0.00 0.00 0.00 82 1011.3
20260510000026 83 131 10.0 15.0 0.00 0.00 0.00 78 1011.2
20260509234555 83 113 8.0 15.0 0.00 0.00 0.00 76 1011.1
20260509233008 83 116 8.0 14.0 0.00 0.00 0.00 76 1010.8
20260509231529 84 129 6.0 16.0 0.00 0.00 0.00 77 1010.8
20260509230050 84 144 6.0 14.0 0.00 0.00 0.00 78 1010.8
20260509224602 84 127 7.0 17.0 0.00 0.00 0.00 80 1010.8
20260509223002 84 89 9.0 18.0 0.00 0.00 0.00 79 1010.8
20260509221522 85 105 12.0 19.0 0.00 0.00 0.00 78 1010.8
20260509220048 85 125 11.0 16.0 0.00 0.00 0.00 77 1010.8
20260509214559 85 106 7.0 17.0 0.00 0.00 0.00 78 1010.8
20260509213116 85 103 10.0 17.0 0.00 0.00 0.00 78 1011.0
20260509211513 85 130 10.0 18.0 0.00 0.00 0.00 81 1010.9
20260509210046 85 101 9.0 18.0 0.00 0.00 0.00 79 1011.0
20260509204610 86 129 10.0 17.0 0.00 0.00 0.00 77 1010.9
20260509203024 86 108 11.0 15.0 0.00 0.00 0.00 76 1011.0
20260509201541 86 94 10.0 15.0 0.00 0.00 0.00 76 1011.2
20260509200100 86 108 8.0 14.0 0.00 0.00 0.00 74 1011.3
20260509194608 85 101 9.0 17.0 0.00 0.00 0.00 76 1011.5
20260509193024 86 142 11.0 17.0 0.00 0.00 0.00 73 1011.4
20260509191537 85 99 10.0 17.0 0.00 0.00 0.00 73 1011.7
20260509190106 86 94 10.0 16.0 0.00 0.00 0.00 73 1011.8
20260509184518 86 115 9.0 15.0 0.00 0.00 0.00 72 1012.0
20260509183037 86 113 11.0 16.0 0.00 0.00 0.00 72 1011.9
20260509181607 86 101 11.0 17.0 0.00 0.00 0.00 72 1012.1
20260509180017 86 77 9.0 15.0 0.00 0.00 0.00 73 1012.2
20260509174530 86 94 10.0 17.0 0.00 0.00 0.00 72 1012.2
20260509173055 88 124 7.0 15.0 0.00 0.00 0.00 70 1012.2
20260509171611 90 86 9.0 12.0 0.00 0.00 0.00 66 1012.4
20260509170025 90 128 5.0 11.0 0.00 0.00 0.00 54 1012.5
20260509164541 90 191 3.0 12.0 0.00 0.00 0.00 53 1012.7
20260509163105 90 170 6.0 13.0 0.00 0.00 0.00 51 1013.0
20260509161510 90 177 3.0 9.0 0.00 0.00 0.00 55 1013.2
20260509160038 89 205 5.0 14.0 0.00 0.00 0.00 55 1013.4
20260509154554 88 182 2.0 10.0 0.00 0.00 0.00 57 1013.6
20260509153003 88 248 4.0 12.0 0.00 0.00 0.00 53 1013.8
20260509151515 88 156 5.0 11.0 0.00 0.00 0.00 52 1013.8
20260509150024 87 229 2.0 16.0 0.00 0.00 0.00 55 1013.7
20260509144553 86 281 5.0 10.0 0.00 0.00 0.00 58 1013.8
20260509143106 86 320 3.0 13.0 0.00 0.00 0.00 58 1013.7
20260509141522 85 212 4.0 8.0 0.00 0.00 0.00 61 1013.7
20260509140038 85 166 3.0 8.0 0.00 0.00 0.00 68 1013.8
20260509134557 83 175 2.0 7.0 0.00 0.00 0.00 73 1014.0
20260509133009 82 263 2.0 6.0 0.00 0.00 0.00 81 1013.9
20260509131521 81 137 3.0 8.0 0.00 0.00 0.00 82 1013.9
20260509130037 80 164 1.0 7.0 0.00 0.00 0.00 87 1013.7
20260509124556 79 219 1.0 6.0 0.00 0.00 0.00 91 1013.6
20260509123005 78 105 2.0 5.0 0.00 0.00 0.00 94 1013.3
20260509121520 77 153 1.0 5.0 0.00 0.00 0.00 97 1013.2
20260509120042 76 203 0.0 4.0 0.00 0.00 0.00 97 1013.3
20260509114610 75 211 0.0 3.0 0.00 0.00 0.00 97 1013.2
20260509113018 74 138 0.0 0.0 0.00 0.00 0.00 97 1013.1
20260509111551 73 250 0.0 0.0 0.00 0.00 0.00 97 1013.0
20260509110112 73 259 0.0 0.0 0.00 0.00 0.00 97 1012.9
20260509104511 73 245 0.0 0.0 0.00 0.00 0.00 97 1012.8
20260509103025 73 215 0.0 0.0 0.00 0.00 0.00 97 1012.8
20260509101532 73 214 0.0 0.0 0.00 0.00 0.00 97 1012.6
20260509100045 73 118 0.0 0.0 0.00 0.00 0.00 97 1012.5
20260509094609 74 148 0.0 4.0 0.00 0.00 0.00 96 1012.5
20260509093024 74 120 2.0 3.0 0.00 0.00 0.00 96 1012.6
20260509091549 74 138 0.0 1.0 0.00 0.00 0.00 96 1012.7
20260509090059 74 290 0.0 0.0 0.00 0.00 0.00 96 1012.8
20260509084607 74 290 0.0 0.0 0.00 0.00 0.00 96 1012.9
20260509083121 73 290 0.0 0.0 0.00 0.00 0.00 96 1012.9
20260509081502 73 286 0.0 0.0 0.00 0.00 0.00 96 1012.9
20260509080019 73 257 0.0 0.0 0.00 0.00 0.00 96 1012.8
20260509074553 73 257 0.0 0.0 0.00 0.00 0.00 96 1012.8
20260509073110 73 218 0.0 0.0 0.00 0.00 0.00 95 1012.8
20260509071509 74 185 0.0 1.0 0.00 0.00 0.00 95 1012.7
20260509070035 74 211 0.0 3.0 0.00 0.00 0.00 95 1012.9
20260509064539 74 184 0.0 2.0 0.00 0.00 0.00 95 1012.9
20260509063103 74 257 0.0 2.0 0.00 0.00 0.00 95 1012.9
20260509061509 74 219 0.0 4.0 0.00 0.00 0.00 94 1013.2
20260509060028 74 235 1.0 4.0 0.00 0.00 0.00 94 1013.2
20260509054537 74 240 1.0 4.0 0.00 0.00 0.00 93 1013.4
20260509053109 75 262 1.0 7.0 0.00 0.00 0.00 93 1013.5
20260509051613 75 209 0.0 7.0 0.00 0.00 0.00 92 1013.5
20260509050014 76 198 1.0 4.0 0.00 0.00 0.00 91 1013.6
20260509044523 77 247 3.0 6.0 0.00 0.00 0.00 91 1013.8
20260509043056 77 166 2.0 6.0 0.00 0.00 0.00 90 1013.5
20260509041502 78 122 3.0 9.0 0.00 0.00 0.00 89 1013.5
20260509040028 78 127 4.0 9.0 0.00 0.00 0.00 89 1013.6
20260509034546 78 103 5.0 9.0 0.00 0.00 0.00 89 1013.6
20260509033135 78 110 3.0 6.0 0.00 0.00 0.00 89 1013.7
20260509031505 78 127 4.0 9.0 0.00 0.00 0.00 89 1013.7
20260509030022 78 120 5.0 8.0 0.00 0.00 0.00 89 1013.7
20260509024555 78 113 3.0 8.0 0.00 0.00 0.00 89 1013.7
20260509023117 78 108 4.0 10.0 0.00 0.00 0.00 89 1013.6
20260509021519 78 118 4.0 8.0 0.00 0.00 0.00 89 1013.6
20260509014612 78 137 4.0 7.0 0.00 0.00 0.00 89 1013.3
20260509013018 79 120 3.0 6.0 0.00 0.00 0.00 89 1013.3
20260509011546 79 112 4.0 6.0 0.00 0.00 0.00 88 1013.2
20260509010104 79 126 3.0 8.0 0.00 0.00 0.00 88 1013.2
20260509004509 79 117 3.0 8.0 0.00 0.00 0.00 88 1013.0
20260509003033 79 110 3.0 8.0 0.00 0.00 0.00 87 1012.9